Portada
METAR-TAF:

METAR-TAF

Aeroports :

Waterbury-Oxford Airport

Oxford, Connecticut, Estats Units d'Amèrica

latitud: 41-29N, longitud: 073-08W, altitud: 222 m

Observació

L'informe es va fer fa 11 minuts, a les 15:24 UTC
Vent 4 kt del Oest
Temperatura 3°C
Humitat 100%
Pressió 1008 hPa
Visibilitat: 16.1 km
Cel cobert a una alçada de 600 ft

METAR: KOXC 191524Z 27004KT 10SM OVC006 03/03 A2977 RMK AO2

Hora: 10:35 (15:35 UTC)


TAF: manca

Observacions i pronòstics meteorològics de més de 4000 aeroports (METAR i TAF).

Les estacions disponibles són els punts grocs i vermells al mapa.

Posi el ratolí al punt desitjat per veure el nom de l'estació.

Feu clic per veure les observacions i els pronòstics meteorològics.

Per canviar el mapa: feu clic els botons verds amb una creu de color negre per apropar; al botó verd amb un guió per allunyar la imatge; o en les fletxes verdes per a mapes adjacents.


METAR-TAF: